Maersk Essen — V7UQ8 — position and weather

sailwx.info

Track history (hours):
 
Tides and Currents Weather Stations Pressure Air Temp Water Temp Dewpoint Dewpoint Depression Visibility Wind Speed Wind Dir Waves Ship Positions

Maersk Essen

Last reported at 2014-Jul-23 03:22 UTC. Time now 2014-Jul-23 07:26 UTC.
Position N 32°51' E 027°40'.

Length 367 m; draft 14.9 m.

Type: Ship (hazmat cat A). MMSI: 538004007.

Date/timePositionNaut miles runAvg speedWind from/ knotsBaromVisibWave heightAir tempDewpointWater temp
2014-Jul-23 03:22N 32°51' E 027°40'8421.9
2014-Jul-22 23:33N 32°28' E 029°15'2121.4
2014-Jul-22 22:33N 32°22' E 029°40'2121.1
2014-Jul-22 21:33N 32°16' E 030°04'2120.7
2014-Jul-22 20:33N 32°10' E 030°27'2120.6
2014-Jul-22 19:32N 32°03' E 030°51'2020.7
2014-Jul-22 18:33N 31°57' E 031°13'2220.7
2014-Jul-22 17:31N 31°51' E 031°38'2020.4
2014-Jul-22 16:33N 31°45' E 031°60'2120.3
2014-Jul-22 15:33N 31°30' E 032°17'1413.9
2014-Jul-22 14:33N 31°17' E 032°22'10 9.7
2014-Jul-22 13:33N 31°08' E 032°19'  
Track history (hours):
 
Tides and Currents Weather Stations Pressure Air Temp Water Temp Dewpoint Dewpoint Depression Visibility Wind Speed Wind Dir Waves Ship Positions

Maersk Essen

Last reported at 2014-Jul-23 03:22 UTC. Time now 2014-Jul-23 07:26 UTC.
Position N 32°51' E 027°40'.

Length 367 m; draft 14.9 m.

Type: Ship (hazmat cat A). MMSI: 538004007.

Date/timePositionNaut miles runAvg speedWind from/ knotsBaromVisibWave heightAir tempDewpointWater temp
2014-Jul-23 03:22N 32°51' E 027°40'8421.9
2014-Jul-22 23:33N 32°28' E 029°15'2121.4
2014-Jul-22 22:33N 32°22' E 029°40'2121.1
2014-Jul-22 21:33N 32°16' E 030°04'2120.7
2014-Jul-22 20:33N 32°10' E 030°27'2120.6
2014-Jul-22 19:32N 32°03' E 030°51'2020.7
2014-Jul-22 18:33N 31°57' E 031°13'2220.7
2014-Jul-22 17:31N 31°51' E 031°38'2020.4
2014-Jul-22 16:33N 31°45' E 031°60'2120.3
2014-Jul-22 15:33N 31°30' E 032°17'1413.9
2014-Jul-22 14:33N 31°17' E 032°22'10 9.7
2014-Jul-22 13:33N 31°08' E 032°19'  

Dump ship's entire track history